EW5716 Weather Reports


time (UTC)temp
F
wind
direction
speed
knots
gust
knots
rain 1hr
in
rain 24hr
in
rain mn
in
humidity
%
barometer
mb
20260507161601 48 338 1.7 7.0 0.00 0.37 0.00 70 1006.6
20260507160100 47 332 0.9 8.7 0.00 0.37 0.00 76 1006.7
20260507154601 47 299 0.0 7.0 0.00 0.42 0.00 82 1006.8
20260507153101 47 221 1.7 4.3 0.00 0.42 0.00 80 1006.9
20260507151601 45 273 0.9 7.8 0.00 0.42 0.00 86 1006.9
20260507151501 45 273 1.7 7.8 0.00 0.42 0.00 85 1006.9
20260507150100 43 50 0.9 7.0 0.00 0.42 0.00 89 1006.9
20260507150001 43 288 0.0 7.0 0.00 0.44 0.00 90 1007.0
20260507144618 44 298 1.7 0.0 7.40 0.00 0.00 92 1006.8
20260507143104 43 340 1.7 4.3 0.00 0.44 0.00 92 1006.9
20260507141626 41 252 0.0 4.3 0.00 0.44 0.00 94 1007.0
20260507141500 41 252 0.9 4.3 0.00 0.44 0.00 94 1007.0
20260507140101 41 344 0.0 2.6 0.00 0.44 0.00 95 1007.0
20260507140006 41 344 0.0 1.7 0.00 0.44 0.00 95 1007.0
20260507134600 41 343 0.9 2.6 0.00 0.50 0.00 96 1006.9
20260507133100 40 341 0.9 4.3 0.00 0.50 0.00 96 1007.2
20260507131600 40 329 0.9 2.6 0.00 0.50 0.00 96 1007.1
20260507130110 40 329 0.0 1.7 0.00 0.50 0.00 96 1007.2
20260507130001 40 329 0.0 1.7 0.00 0.52 0.00 96 1007.1
20260507124613 39 329 0.0 1.7 0.00 0.52 0.00 96 1007.1
20260507123100 39 332 0.0 1.7 0.00 0.52 0.00 96 1007.0
20260507123001 39 332 0.0 1.7 0.00 0.52 0.00 96 1007.1
20260507121559 40 331 0.9 1.7 0.00 0.52 0.00 96 1007.0
20260507120100 39 9 0.0 0.9 0.00 0.52 0.00 96 1006.9
20260507120002 39 9 0.0 0.9 0.00 0.52 0.00 96 1006.9
20260507114601 39 9 0.0 1.7 0.00 0.53 0.00 97 1006.8
20260507113100 39 13 0.0 2.6 0.00 0.53 0.00 96 1006.8
20260507113004 38 13 0.0 2.6 0.00 0.53 0.00 96 1006.8
20260507111600 38 13 0.0 1.7 0.00 0.53 0.00 96 1006.8
20260507110100 38 13 0.0 0.0 0.00 0.53 0.00 96 1006.8
20260507110004 38 13 0.0 0.0 0.00 0.53 0.00 96 1006.8
20260507104611 37 13 0.0 0.0 0.00 0.53 0.00 96 1006.7
20260507103118 37 13 0.0 0.0 0.00 0.53 0.00 96 1006.9
20260507101517 37 13 0.0 0.9 0.00 0.53 0.00 96 1006.7
20260507100100 37 13 0.0 0.9 0.00 0.53 0.00 96 1006.7
20260507100002 37 13 0.0 0.9 0.00 0.53 0.00 96 1006.6
20260507094559 36 13 0.0 0.9 0.00 0.54 0.00 96 1006.9
20260507093101 36 13 0.0 0.0 0.00 0.54 0.00 95 1006.6
20260507093001 36 13 0.0 0.0 0.00 0.54 0.00 95 1006.6
20260507091700 37 13 0.0 0.0 0.00 0.54 0.00 95 1006.5
20260507090100 38 13 0.0 0.9 0.00 0.54 0.00 96 1006.5
20260507090006 38 13 0.0 0.9 0.00 0.56 0.00 96 1006.5
20260507084601 38 13 0.0 1.7 0.00 0.56 0.00 96 1006.7
20260507083100 38 13 0.0 0.0 0.00 0.56 0.00 96 1006.9
20260507080001 38 13 0.0 2.6 0.00 0.56 0.00 96 1006.4
20260507074603 38 15 0.0 0.0 0.00 0.59 0.00 96 1006.4
20260507073103 38 15 0.0 0.0 0.00 0.59 0.00 96 1006.4
20260507071602 38 15 0.0 0.0 0.00 0.59 0.00 96 1006.3
20260507070103 38 15 0.0 1.7 0.00 0.59 0.00 96 1006.4
20260507070000 38 15 0.0 2.6 0.00 0.60 0.00 96 1006.4
20260507064559 38 15 0.0 1.7 0.00 0.60 0.00 96 1006.3
20260507063101 38 15 0.0 0.0 0.00 0.60 0.00 96 1006.4
20260507061604 38 15 0.0 1.7 0.00 0.60 0.00 96 1006.4
20260507060104 38 15 0.9 3.5 0.00 0.60 0.00 96 1006.5
20260507054502 38 315 0.0 3.5 0.00 0.65 0.00 96 1006.4
20260507053109 38 9 0.9 5.2 0.00 0.65 0.00 96 1006.6
20260507051601 38 28 0.0 5.2 0.00 0.65 0.00 96 1006.7
20260507050002 38 331 0.9 3.5 0.00 0.65 0.00 96 1007.0
20260507044607 38 336 0.0 3.5 0.00 0.79 0.00 96 1006.8
20260507043105 39 340 1.7 3.5 0.00 0.79 0.00 96 1006.8
20260507041606 39 5 0.0 1.7 0.00 0.79 0.00 96 1006.7
20260507040059 39 37 0.0 3.5 0.00 0.79 0.00 96 1006.9
20260507040007 39 38 0.9 3.5 0.00 0.79 0.00 96 1006.9
20260507034501 39 9 1.7 4.3 0.00 0.85 0.79 96 1007.1
20260507033101 39 16 0.0 2.6 0.01 0.85 0.79 96 1007.0
20260507031559 39 332 0.9 3.5 0.02 0.85 0.79 96 1006.6
20260507030104 40 360 0.0 3.5 0.02 0.85 0.79 96 1006.6
20260507030003 40 350 0.0 2.6 0.02 0.85 0.79 96 1006.7
20260507024601 40 360 0.9 2.6 0.04 0.86 0.79 96 1006.6
20260507024501 40 11 0.0 2.6 0.04 0.86 0.79 96 1006.6
20260507023100 40 5 0.0 3.5 0.04 0.85 0.78 96 1006.7
20260507023002 40 5 0.0 3.5 0.04 0.85 0.78 95 1006.7
20260507021501 40 342 0.9 2.6 0.03 0.84 0.77 96 1006.8
20260507020105 40 360 0.0 2.6 0.04 0.84 0.77 96 1007.1
20260507014559 40 19 0.9 3.5 0.05 0.82 0.75 96 1007.0
20260507013103 41 348 0.0 1.7 0.05 0.81 0.74 96 1006.9
20260507013000 41 348 0.0 1.7 0.05 0.81 0.74 96 1006.9
20260507011600 41 348 0.0 3.5 0.05 0.81 0.74 96 1006.6
20260507011501 41 348 0.0 3.5 0.05 0.81 0.74 96 1006.6
20260507010100 41 20 0.0 3.5 0.05 0.80 0.73 96 1006.4
20260507004600 41 24 0.0 2.6 0.03 0.77 0.70 96 1006.4
20260507003059 41 29 0.9 3.5 0.02 0.76 0.69 96 1006.1
20260507001600 41 32 0.0 3.5 0.02 0.76 0.69 96 1005.6
20260507000110 41 17 0.9 4.3 0.01 0.75 0.68 96 1005.5
20260506234603 41 344 1.7 3.5 0.00 0.74 0.67 96 1005.1
20260506233104 41 331 0.9 4.3 0.00 0.74 0.67 95 1005.2
20260506231559 41 360 1.7 5.2 0.01 0.74 0.67 95 1005.1
20260506230001 41 12 0.9 3.5 0.01 0.74 0.67 95 1004.7
20260506224608 41 13 1.7 7.8 0.01 0.74 0.67 95 1004.7
20260506223059 41 297 0.9 4.3 0.01 0.74 0.67 95 1004.5
20260506221559 41 355 0.9 4.3 0.01 0.73 0.66 95 1004.5
20260506220002 41 360 1.7 5.2 0.01 0.73 0.66 95 1004.5
20260506214610 41 87 1.7 7.8 0.03 0.73 0.66 96 1004.5
20260506213100 42 335 0.0 5.2 0.03 0.73 0.66 96 1004.6
20260506211559 42 12 0.0 1.7 0.03 0.72 0.65 95 1004.4
20260506210100 42 355 0.0 2.6 0.04 0.72 0.65 95 1004.5
20260506204632 42 349 0.0 4.3 0.03 0.76 0.63 95 1004.1
20260506203059 42 355 1.7 4.3 0.03 0.76 0.63 95 1004.2
20260506201600 42 320 0.9 3.5 0.02 0.75 0.62 95 1004.1
20260506200059 42 338 0.9 2.6 0.01 0.74 0.61 95 1004.2
20260506200002 42 336 0.9 2.6 0.01 0.74 0.61 95 1004.1
20260506194606 42 15 1.7 4.3 0.00 0.74 0.60 95 1004.0
20260506193101 42 333 0.9 4.3 0.00 0.74 0.60 95 1004.1
20260506191559 43 333 2.6 7.0 0.01 0.74 0.60 96 1004.1
20260506190100 42 5 2.6 7.8 0.03 0.74 0.60 96 1004.0
20260506184600 42 340 0.9 3.5 0.05 0.74 0.60 96 1004.0
20260506183106 41 11 1.7 5.2 0.06 0.74 0.60 95 1004.3
20260506181602 42 342 0.9 3.5 0.07 0.73 0.59 95 1004.4
20260506180101 42 327 0.9 4.3 0.08 0.71 0.56 95 1004.3
20260506180002 42 327 0.9 4.3 0.08 0.71 0.56 95 1004.4
20260506174602 41 349 0.9 2.6 0.08 0.69 0.55 95 1004.6
20260506173101 41 5 0.0 4.3 0.09 0.68 0.54 95 1005.0
20260506171604 41 323 1.7 5.2 0.09 0.66 0.52 95 1004.9
20260506170107 42 5 1.7 10.4 0.07 0.63 0.49 95 1004.7
20260506170002 42 26 0.9 10.4 0.07 0.63 0.49 95 1004.7
20260506164603 43 333 2.6 7.8 0.06 0.61 0.47 95 1004.9
20260506164503 43 328 1.7 5.2 0.06 0.61 0.47 95 1004.9
20260506163106 44 348 0.9 5.2 0.05 0.59 0.45 95 1004.3